This is the latest recevied weather packets stored in our database for station/object KF6RAL-6. If no packets are shown the sender has not sent any weather packets the latest 10 day(s).
| Time | Temp. | Humidity | Pressure | Rain* | Wind** | Luminosity | Snow |
|---|---|---|---|---|---|---|---|
| 1787929679 | 23.89° C | 54% | 1016.7 hPa | 0 mm | - | - | - |
| 1787929258 | 23.89° C | 56% | 1016.9 hPa | 0 mm | - | - | - |
| 1787928837 | 23.89° C | 53% | 1017.1 hPa | 0 mm | - | - | - |
| 1787928417 | 23.89° C | 52% | 1017.3 hPa | 0 mm | - | - | - |
| 1787927995 | 23.89° C | 53% | 1017.2 hPa | 0 mm | - | - | - |
| 1787927574 | 23.89° C | 54% | 1016.9 hPa | 0 mm | - | - | - |
| 1787927154 | 23.89° C | 50% | 1016.9 hPa | 0 mm | - | - | - |
| 1787926734 | 24.44° C | 49% | 1017.3 hPa | 0 mm | - | - | - |
| 1787926311 | 24.44° C | 48% | 1016.7 hPa | 0 mm | - | - | - |
| 1787925891 | 25° C | 47% | 1016.5 hPa | 0 mm | - | - | - |
| 1787925476 | 25° C | 47% | 1016.3 hPa | 0 mm | - | - | - |
| 1787925049 | 25° C | 47% | 1016.2 hPa | 0 mm | - | - | - |
| 1787924627 | 24.44° C | 46% | 1016.1 hPa | 0 mm | - | - | - |
| 1787924206 | 24.44° C | 50% | 1015.9 hPa | 0 mm | - | - | - |
| 1787923785 | 24.44° C | 49% | 1016 hPa | 0 mm | - | - | - |
| 1787923364 | 24.44° C | 50% | 1015.9 hPa | 0 mm | - | - | - |
| 1787922943 | 25° C | 46% | 1015.9 hPa | 0 mm | - | - | - |
| 1787922524 | 25° C | 44% | 1015.7 hPa | 0 mm | - | - | - |
| 1787921680 | 25.56° C | 44% | 1015.8 hPa | 0 mm | - | - | - |
| 1787921259 | 25.56° C | 43% | 1015.6 hPa | 0 mm | - | - | - |
| 1787920838 | 25.56° C | 44% | 1015.8 hPa | 0 mm | - | - | - |
| 1787920417 | 25° C | 48% | 1015.4 hPa | 0 mm | - | - | - |
| 1787919996 | 25° C | 47% | 1016 hPa | 0 mm | - | - | - |
| 1787919575 | 24.44° C | 48% | 1016.3 hPa | 0 mm | - | - | - |
| 1787919154 | 23.89° C | 54% | 1016.1 hPa | 0 mm | - | - | - |
* Rain latest hour (hover to see other rain measurements)
** Current wind speed in m/s (hover to see current wind gust speed)